BEIDOU-2 G6

Last updated on Wed Mar 04 2026 00:02:49 GMT+0000 (Coordinated Universal Time)

1 38953U 12059A 26062.66063242 -.00000186 00000+0 00000+0 0 9994 2 38953 4.1542 74.6541 0010454 302.5364 106.0363 1.00269302 48857
UTC large
Height (km)
Speed (km/s)
/
Latitude / Longitude
Inclination (degrees)
Orbital Period (minutes)
Azimuth
Elevation
Range (km)
Doppler Factor

Next 0 passes for location: London (51.5072 / 0.1276)

Sorry there are no passes over London.